EHI
0 0 0 0 0 0 0 0 0 0 0 0 0 0 0 0 0 0 0 0 0 0 0 0 0 1 2 1 2 3 3 3 4 3 1 1 1 1 0 0 0 0 0
0 0 0 0 0 0 0 0 0 0 0 0 0 0 0 0 0 0 0 0 0 0 0 0 1 2 2 1 1 2 2 2 3 3 1 0 0 0 0 0 0 0 0
0 0 0 0 0 0 0 0 0 0 0 0 0 0 0 0 0 0 0 0 0 0 0 0 1 1 1 0 0 1 1 1 1 1 0 0 0 0 0 0 0 0 0
0 0 0 0 0 0 0 0 0 0 0 0 0 0 0 0 0 0 0 0 0 0 0 0 0 0 0 0 0 0 0 0 0 0 0 0 0 0 0 0 0 0 0
0 0 0 0 0 0 0 0 0 0 0 0 0 0 0 0 0 0 0 0 0 0 0 0 0 0 0 0 0 0 0 0 1 1 1 0 0 0 0 0 0 0 0
0 0 0 0 0 0 0 0 0 0 0 0 0 0 0 0 0 0 0 0 0 0 0 0 0 0 0 0 0 0 0 0 1 1 1 0 0 0 0 0 0 0 0
0 0 0 0 0 0 0 0 0 0 0 0 0 0 0 0 0 0 0 0 0 0 0 0 0 0 0 0 0 0 0 0 0 0 0 0 0 0 0 0 0 0 0
0 0 0 0 0 0 0 0 0 0 0 0 0 0 0 0 0 0 0 0 0 0 0 0 0 0 0 0 0 0 0 0 0 0 0 0 0 0 0 0 0 0 0
0 0 0 0 0 0 0 0 0 0 0 0 0 0 0 0 0 0 0 0 0 0 0 0 0 0 0 0 0 0 0 0 0 0 0 0 0 0 0 0 0 0 0
0 0 0 0 0 0 0 0 0 0 0 0 0 0 0 0 0 0 0 0 0 0 0 0 0 0 0 0 0 0 0 0 0 0 0 0 0 0 0 0 0 0 0
0 0 0 0 0 0 0 0 0 0 0 0 0 0 0 0 0 0 0 0 0 0 0 0 0 0 0 0 0 0 0 0 0 0 0 0 0 0 0 0 0 0 0
0 0 0 0 0 0 0 0 0 0 0 0 0 0 0 0 0 0 0 0 0 0 0 0 0 0 0 0 0 0 0 0 0 0 0 0 0 0 0 0 0 0 0
0 0 0 0 0 0 0 0 0 0 0 0 0 0 0 0 0 0 0 0 0 0 0 0 0 0 0 0 0 0 0 0 0 0 0 0 0 0 0 0 0 0 0
0 0 0 0 0 0 0 0 0 0 0 0 0 0 0 0 0 0 0 0 0 0 0 0 0 0 0 0 0 0 0 0 0 0 0 0 0 0 0 0 0 0 0
0 0 0 0 0 0 0 0 0 0 0 0 0 0 0 0 0 0 0 0 0 0 0 0 0 0 0 0 0 0 0 0 0 0 0 0 0 0 0 0 0 0 0
0 0 0 0 0 0 0 0 0 0 0 0 0 0 0 0 0 0 0 0 0 0 0 0 0 0 0 0 0 0 0 0 0 0 0 0 0 0 0 0 0 0 0
0 0 0 0 0 0 0 0 0 0 0 0 0 0 0 0 0 0 0 0 0 0 0 0 0 0 0 0 0 0 0 0 0 0 0 0 0 0 0 0 0 0 0
0 0 0 0 0 0 0 0 0 0 0 0 0 0 0 0 0 0 0 0 0 0 0 0 0 0 0 0 0 0 0 0 0 0 0 0 0 0 0 0 0 0 0
0 0 0 0 0 0 0 0 0 0 0 0 0 0 0 0 0 0 0 0 0 0 0 0 0 0 0 0 0 0 0 0 0 0 0 0 0 0 0 0 0 0 0
0 0 0 0 0 0 0 0 0 0 0 0 0 0 0 0 0 0 0 0 0 0 0 0 0 0 0 0 0 0 0 0 0 0 0 0 0 0 0 0 0 0 0
0 0 0 0 0 0 0 0 0 0 0 0 0 0 0 0 0 0 0 0 0 0 0 0 0 0 0 0 0 0 0 0 0 0 0 0 0 0 0 0 0 0 0
0 0 0 0 0 0 0 0 0 0 0 0 0 0 0 0 0 0 0 0 0 0 0 0 0 0 0 0 0 0 0 0 0 0 0 0 0 0 0 0 0 0 0
0 0 0 0 0 0 0 0 0 0 0 0 0 0 0 0 0 0 0 0 0 0 0 0 0 0 0 0 0 0 0 0 0 0 0 0 0 0 0 0 0 0 0
0 0 0 0 0 0 0 0 0 0 0 0 0 0 0 0 0 0 0 0 0 0 0 0 0 0 0 0 0 0 0 0 0 0 0 0 0 0 0 0 0 0 0
0 0 0 0 0 0 0 0 0 0 0 0 0 0 0 0 0 0 0 0 0 0 0 0 0 0 0 0 0 0 0 0 0 0 0 0 0 0 0 0 0 0 0
0 0 0 0 0 0 0 0 0 0 0 0 0 0 0 0 0 0 0 0 0 0 0 0 0 0 0 0 0 0 0 0 0 0 0 0 0 0 0 0 0 0 0
Wind_Speed
1 1 1 1 1 2 2 3 3 4 5 5 4 4 4 4 3 3 2 8 9 9 9 9 9 10 9 10 10 9 9 9 10 9 9 9 8 8 8 8 8 8 8
2 2 2 2 2 2 3 3 4 4 3 4 4 4 4 3 3 3 3 4 8 9 9 9 9 9 9 9 9 9 9 9 9 9 10 10 10 9 9 9 8 8 8
3 2 3 3 2 3 4 4 4 3 4 4 4 3 3 3 3 3 3 3 3 6 8 8 9 9 9 9 9 9 9 9 9 9 9 9 9 9 9 9 9 9 9
3 3 3 2 3 3 3 3 3 4 4 3 3 2 2 2 3 3 3 3 3 3 5 9 9 8 8 8 8 8 9 9 9 9 9 9 9 9 9 9 10 10 10
4 4 3 2 3 3 3 3 3 3 3 3 3 3 2 2 2 3 3 3 3 3 3 5 8 8 8 8 8 8 9 9 9 9 9 9 9 9 9 9 10 10 10
4 4 3 3 3 3 3 3 3 3 3 3 4 4 3 3 3 3 2 2 2 2 2 3 3 4 7 7 8 8 8 9 9 9 9 9 9 9 9 9 9 10 10
3 4 3 3 3 3 3 3 3 4 2 2 4 4 4 4 4 3 2 2 2 2 2 2 2 2 2 6 7 6 7 8 8 9 9 9 9 8 9 9 9 10 10
3 4 3 3 3 3 3 3 3 2 1 1 3 3 2 4 4 4 3 2 2 2 2 3 3 2 2 2 4 7 7 7 8 8 8 8 8 8 8 8 9 9 10
3 3 4 3 3 3 3 2 2 3 2 1 1 3 3 1 1 3 3 3 2 2 2 2 3 2 2 2 2 4 7 6 7 7 7 8 8 8 8 8 9 9 10
2 2 3 3 3 3 3 2 2 2 3 1 1 1 2 3 3 1 3 3 3 3 2 2 3 3 2 2 3 5 6 6 6 6 7 7 7 7 8 8 9 9 9
1 2 3 3 4 3 2 2 2 2 2 2 1 1 2 2 2 3 1 2 3 3 2 2 2 2 2 2 2 4 6 6 6 6 6 7 7 7 7 7 8 8 8
1 2 3 3 3 3 3 2 2 3 2 2 2 2 2 2 2 3 2 1 1 2 2 2 2 1 1 1 2 4 5 5 5 5 6 6 6 6 7 7 8 8 9
0 1 2 2 2 2 3 3 3 2 2 2 2 2 1 1 2 3 3 2 1 1 2 2 1 1 1 1 1 3 4 4 4 4 5 5 6 6 6 7 7 7 8
2 2 2 2 2 3 3 3 2 2 2 2 3 2 2 1 1 2 3 3 2 1 2 2 2 1 0 0 0 1 2 3 3 3 4 4 4 5 5 6 7 7 7
2 3 3 3 3 3 3 3 2 2 3 2 2 2 2 1 1 1 2 3 4 2 1 2 1 1 1 0 0 1 1 2 2 2 3 3 4 4 5 5 6 6 6
2 3 3 3 3 3 3 3 2 2 3 2 2 3 2 1 2 2 2 2 2 4 2 2 2 1 1 0 1 1 0 2 3 2 2 3 3 3 3 4 5 5 6
3 4 4 3 3 3 3 3 2 2 2 2 2 2 2 2 2 1 2 2 2 3 3 1 1 1 1 1 1 1 1 1 1 2 2 3 3 2 2 3 4 4 5
3 4 4 3 3 3 3 4 3 2 2 2 1 2 1 2 2 1 1 2 1 2 3 2 1 1 1 0 0 0 1 1 0 1 2 2 2 2 2 2 2 3 3
3 3 3 3 3 3 3 3 3 3 2 2 2 2 2 2 1 1 1 1 1 1 2 2 1 1 1 1 1 1 1 1 1 0 1 1 1 1 1 1 1 2 2
3 3 3 3 3 3 3 3 3 3 2 2 1 2 2 3 3 3 2 2 2 2 2 2 1 0 0 1 1 0 1 1 1 1 1 1 1 1 1 1 0 1 2
3 3 3 3 3 3 2 3 3 3 2 1 1 0 1 2 3 3 2 3 3 2 2 2 1 0 0 0 1 1 1 1 2 1 1 1 1 1 2 2 2 2 2
3 3 3 3 3 2 3 5 5 3 3 2 1 1 1 1 2 2 3 4 5 4 3 2 2 2 2 2 1 1 1 0 2 1 0 2 0 1 2 2 3 3 2
3 3 3 3 2 2 4 6 6 4 3 3 2 1 1 1 2 2 2 3 1 2 4 4 4 4 3 3 3 2 2 2 3 2 1 2 1 2 3 3 4 3 3
3 3 3 3 2 2 4 6 6 3 3 2 2 2 2 1 1 2 2 2 2 1 1 1 3 3 3 2 3 3 2 1 1 1 1 1 2 2 2 2 4 4 4
2 2 3 3 3 2 4 5 5 3 2 1 1 1 2 1 1 4 4 2 1 2 2 2 1 0 0 1 2 2 1 1 1 2 0 1 1 2 2 2 3 4 4
3 3 2 3 3 2 3 5 6 3 2 1 1 1 2 2 2 4 3 3 1 1 1 2 2 3 2 1 1 2 2 1 1 2 2 1 1 0 2 2 2 2 3
Wind_Direction
104 89 81 67 63 76 91 89 85 83 83 84 86 88 83 79 68 55 52 74 82 87 87 84 82 80 80 78 76 72 72 72 70 67 64 64 64 63 60 59 60 56 52
102 95 87 77 73 80 83 87 88 87 85 87 81 80 78 78 73 68 53 64 77 82 84 84 82 78 77 76 75 73 70 68 69 65 63 62 61 62 62 59 57 53 50
97 97 90 83 83 90 89 82 80 80 86 84 80 78 78 76 82 76 64 53 55 70 79 81 79 75 73 73 75 77 73 68 69 67 64 63 61 59 60 58 55 51 50
91 88 86 81 83 83 84 87 81 80 78 83 80 71 75 77 84 85 74 62 50 50 64 74 73 72 70 69 73 76 76 72 70 67 64 63 63 61 59 55 53 50 49
95 99 95 87 87 82 79 95 83 91 92 89 91 74 60 64 73 89 80 76 70 61 51 67 69 70 69 66 70 74 76 76 74 71 66 63 62 62 59 55 53 51 49
92 101 105 95 90 87 77 83 89 77 89 94 88 68 48 50 58 71 81 82 80 68 56 57 52 57 66 65 65 71 75 76 76 74 69 66 62 62 59 57 55 53 49
90 96 103 98 95 97 102 105 99 82 67 80 78 52 29 36 46 44 48 63 66 57 66 72 64 47 44 54 55 63 69 73 75 74 70 66 62 61 60 58 57 54 51
96 109 109 109 107 102 95 95 100 94 73 82 104 94 45 14 14 27 29 45 51 51 67 90 89 74 56 39 48 60 64 71 74 73 69 66 63 62 60 58 57 55 52
104 109 111 116 118 116 124 127 129 126 123 43 96 130 131 166 344 360 11 24 35 48 56 77 86 85 76 53 40 54 65 66 69 69 65 64 62 59 58 58 57 54 51
99 105 110 115 119 121 132 143 134 131 124 113 47 69 129 143 134 50 352 5 25 40 42 65 71 72 67 61 56 65 67 62 62 63 60 62 62 58 58 57 54 52 50
78 107 109 110 113 123 134 121 110 108 117 130 132 115 89 79 100 126 121 344 8 8 23 41 56 61 54 59 60 68 70 65 61 61 58 58 58 58 56 55 51 47 45
45 87 113 117 121 129 132 123 112 108 105 108 109 116 134 136 144 133 140 142 15 343 11 22 38 48 47 49 71 80 79 73 64 59 56 55 52 52 49 49 46 43 40
127 157 127 125 123 131 125 118 108 99 106 110 115 114 117 132 144 135 126 132 91 348 4 10 360 10 42 37 39 86 86 83 71 63 61 55 49 45 45 42 38 36 35
191 177 146 136 126 123 114 109 105 100 101 103 106 110 107 102 120 136 143 135 103 24 11 333 345 335 356 30 25 73 72 92 87 79 72 64 52 44 44 39 34 31 31
187 165 145 138 127 119 112 111 98 97 102 100 108 104 99 96 101 106 123 138 139 136 275 281 297 300 295 285 286 71 63 103 98 93 90 82 70 61 53 45 38 33 30
161 145 146 149 140 130 122 112 106 107 101 97 103 101 95 92 85 88 105 110 124 137 164 249 248 261 271 87 92 59 48 93 99 97 100 98 85 74 60 51 42 34 28
162 162 163 159 153 149 140 125 121 119 113 90 87 105 106 104 97 90 93 97 103 118 133 277 325 336 51 64 36 24 24 32 78 107 103 102 90 78 66 54 44 36 28
168 168 161 159 159 155 153 150 153 147 144 138 122 111 108 104 93 90 99 103 118 131 136 149 327 354 13 294 67 42 41 58 54 112 106 109 95 68 56 49 42 37 25
162 162 155 161 160 156 160 164 157 154 160 170 167 159 162 131 124 127 127 123 125 118 124 138 166 344 354 10 36 25 31 3 340 57 78 95 85 67 58 62 44 25 20
147 149 150 156 153 148 150 151 146 143 144 153 164 172 175 163 170 167 153 151 130 113 112 120 123 18 346 353 73 35 342 328 311 331 3 10 5 5 2 13 345 334 344
148 150 136 131 132 136 149 150 148 137 132 115 83 85 180 169 179 168 154 159 142 131 128 131 154 143 267 261 234 224 231 303 305 283 330 312 325 328 321 317 303 298 316
139 133 140 140 139 146 155 156 146 143 139 131 116 46 28 89 98 116 126 151 158 157 165 166 184 200 230 224 206 194 185 141 291 278 170 285 277 279 278 272 278 293 304
145 139 154 150 153 166 154 149 145 138 134 133 131 119 79 67 82 84 78 68 89 171 178 173 185 212 212 214 186 193 205 207 231 240 151 266 279 269 276 276 264 275 292
155 160 162 158 153 165 152 147 144 129 123 131 140 143 129 93 102 107 99 68 33 2 274 174 194 217 222 206 188 189 191 207 282 295 146 226 260 262 280 286 276 271 282
161 165 160 160 162 182 156 147 134 121 119 128 127 115 131 135 116 116 107 96 36 348 1 37 41 330 224 160 140 107 92 85 296 288 226 192 249 277 283 276 282 284 285
165 162 159 168 169 178 168 156 139 130 133 134 85 108 142 139 136 137 135 138 153 285 359 19 20 16 12 6 92 161 170 179 236 270 256 184 233 251 291 279 276 287 290